www.pogodaiklimat.ru

Погода и климат >> Архив погоды >> Пакистан >> Nokkundi


ПОГОДА в Nokkundi

  • Прогноз погоды в Nokkundi
  • Монитор погоды в Nokkundi
  • Климат города

АРХИВ ПОГОДЫ в Nokkundi

Время (UTC), дата Ветер
(напр.,м/с)
 
Видим.   Явления Облачность Т
(С)
Тd
(С)
f
(%)
Тe
(С)
Тes
(С)
Комфортность P
(гПа)
Po
(гПа)
Тmin
(С)
Tmax
(С)
R
(мм)
R24
(мм)
S
(см)
21 18.06 СЗ 1 4000 м ясно +32.0 -0.9 12 +29 +29 жарко 993.1 1000.0
00 19.06 СЗ 2 10 км ясно +29.0 -2.2 13 +26 +26 жарко 994.9 922.0
03 19.06 СЗ 2 10 км ясно +33.0 -0.4 12 +30 +34 жарко 994.5 922.5 +28.5
06 19.06 СЗ 1 10 км ясно +41.0 +0.1 8 +37 +59 опасность
солнечного
удара
993.0 923.1
09 19.06 СЗ 1 10 км ясно +43.5 +0.8 7 +40 +64 опасность
солнечного
удара
990.5 1000.0
12 19.06 СЗ 2 10 км ясно +44.5 +1.6 7 +41 +48 опасность
перегрева
988.9 1019.3 +45.1
15 19.06 СЗ 3 4000 м ясно +40.5 +0.9 9 +37 +37 очень
жарко
990.2 990.0
18 19.06 СЗ 1 4000 м ясно +35.5 -0.1 10 +32 +32 жарко 992.3 921.2
21 19.06 СЗ 1 4000 м ясно +33.0 -0.4 12 +30 +30 жарко 993.0 910.0
00 20.06 СЗ 1 10 км ясно +30.0 -1.8 13 +27 +27 жарко 994.7 922.0
03 20.06 СЗ 1 10 км ясно +35.0 +0.7 11 +31 +37 жарко 994.0 922.6 +29.5
06 20.06 СЗ 1 10 км ясно +44.0 0.0 7 +40 +62 опасность
солнечного
удара
992.1 923.0
09 20.06 штиль 0 10 км ясно +45.0 +0.9 7 +41 +69 опасность
перегрева
990.2 990.0
12 20.06 штиль 0 10 км ясно +46.0 -0.8 6 +42 +52 опасность
перегрева
988.0 1012.1 +46.5
15 20.06 СЗ 2 4000 м ясно +42.0 -1.6 7 +38 +38 очень
жарко
989.1 989.0
18 20.06 СЗ 1 4000 м ясно +38.0 +0.3 9 +34 +34 очень
жарко
991.3 920.8
21 20.06 СЗ 1 4000 м ясно +35.0 +0.7 11 +31 +31 жарко 991.9 1000.0
00 21.06 СЗ 1 10 км ясно +32.0 -0.9 12 +29 +29 жарко 993.9 974.4
03 21.06 СЗ 1 10 км ясно +36.0 -0.9 10 +32 +38 жарко 993.5 922.4 +31.5
06 21.06 СЗ 1 10 км ясно +42.0 +0.8 8 +38 +61 опасность
солнечного
удара
992.1 922.7
09 21.06 СЗ 1 10 км ясно +44.0 0.0 7 +40 +66 опасность
солнечного
удара
989.8 1000.0
12 21.06 СЗ 2 10 км ясно +44.0 0.0 7 +40 +47 очень
жарко
989.0 1026.0 +45.1
15 21.06 СЗ 2 4000 м ясно +40.5 +0.9 9 +37 +37 очень
жарко
990.2 1000.0
18 21.06 СЗ 2 4000 м ясно +36.0 -0.9 10 +32 +32 жарко 992.7 921.7
21 21.06 СЗ 2 4000 м ясно +33.0 -0.4 12 +30 +30 жарко 993.9 1000.0
00 22.06 СЗ 2 10 км ясно +31.0 +0.8 14 +28 +28 жарко 995.3 922.8
03 22.06 СЗ 3 10 км ясно +33.0 -0.4 12 +30 +33 жарко 995.7 923.6 +30.0
06 22.06 СЗ 6 10 км ясно +40.0 +1.6 9 +36 +43 очень
жарко
994.4 924.2
09 22.06 СЗ 7 10 км ясно +42.0 +0.8 8 +38 +44 очень
жарко
992.3 992.0
12 22.06 СЗ 5 10 км ясно +43.0 -0.8 7 +39 +43 очень
жарко
990.8 921.6 +44.0
15 22.06 СЗ 4 4000 м ясно +39.5 +0.2 9 +36 +36 очень
жарко
992.2 898.6
18 22.06 СЗ 3 4000 м ясно +35.5 -0.1 10 +32 +32 жарко 994.1 922.8
21 22.06 СЗ 3 4000 м ясно +33.5 -1.2 11 +30 +30 жарко 994.2 994.0
00 23.06 СЗ 2 10 км ясно +31.0 -1.3 12 +28 +28 жарко 996.0 970.9
03 23.06 СЗ 1 10 км ясно +33.5 -1.2 11 +30 +35 жарко 996.2 924.2 +30.5
06 23.06 ЮВ 2 10 км ясно +41.5 +1.6 9 +38 +56 опасность
солнечного
удара
994.2 924.5
09 23.06 СЗ 3 10 км ясно +44.0 0.0 7 +40 +57 опасность
солнечного
удара
992.2 992.0
12 23.06 С 2 10 км ясно +44.0 0.0 7 +40 +47 очень
жарко
990.9 921.8 +45.0
15 23.06 С 1 4000 м ясно +40.5 +0.9 9 +37 +37 очень
жарко
991.9 1000.0
18 23.06 СЗ 1 4000 м ясно +36.0 -0.9 10 +32 +32 жарко 994.0 1025.8
21 23.06 СЗ 1 4000 м ясно +33.5 -1.2 11 +30 +30 жарко 994.7 1000.0
00 24.06 СЗ 1 10 км ясно +31.0 -1.3 12 +28 +28 жарко 996.2 923.7
03 24.06 С 1 10 км ясно +34.0 +0.2 12 +31 +36 жарко 996.4 924.5 +30.5
06 24.06 С 1 10 км ясно +43.0 +1.6 8 +39 +61 опасность
солнечного
удара
994.2 970.3
09 24.06 СЗ 2 10 км ясно +45.0 +0.9 7 +41 +62 опасность
перегрева
991.7 992.0
12 24.06 СЗ 3 10 км ясно +45.5 +0.1 6 +42 +47 опасность
перегрева
989.3 920.8 +46.0
18 24.06 СЗ 1 4000 м ясно +38.0 +0.3 9 +34 +34 очень
жарко
992.7 922.1
21 24.06 СЗ 3 4000 м ясно +35.0 +0.7 11 +31 +31 жарко 993.2 993.0
00 25.06 СЗ 2 10 км ясно +33.0 -0.4 12 +30 +30 жарко 994.6 969.9
03 25.06 СЗ 3 10 км ясно +34.0 +0.2 12 +31 +34 жарко 995.0 923.2 +31.5
06 25.06 СЗ 9 4000 м пыльный позёмок ясно +39.0 +1.0 9 +35 +37 очень
жарко
994.2 923.7
09 25.06 СЗ 11 2000 м пыльный позёмок ясно +41.5 -0.7 7 +38 +38 очень
жарко
991.7 992.0
12 25.06 СЗ 12 2000 м пыльный позёмок ясно +41.5 -0.7 7 +38 +38 очень
жарко
990.6 921.1 +43.0
15 25.06 СЗ 5 2000 м пыльный позёмок ясно +38.0 +0.3 9 +34 +34 очень
жарко
991.7 1000.0
18 25.06 СЗ 4 2000 м пыльный позёмок ясно +33.0 -2.7 10 +29 +29 жарко 993.9 921.9

 

Местоположение метеостанции Nokkundi (Пакистан): широта 28.82 долгота 62.75 высота над уровнем моря 683 м.

В архиве по умолчанию представлена погода в Nokkundi за последнюю неделю. Архивные данные за месяц целиком и за предыдущие месяцы, начиная с января 2011 года, Вы можете получить, выбрав интересующий диапазон дат из раскрывающегося списка и нажав кнопку "Ввод!".


*Определитесь, кто Вы:
робот инопланетянин человек

Внимание! Время в таблицах - всемирное. Для получения местного времени необходимо прибавить поправку, которая в Nokkundi равна 5 ч.

Смотрите также архив погоды в соседних городах и на ближайших метеорологических станциях:

Погода в Dal Bandin (Пакистан) (161 км)
Погода в Saravan (Иран) (171 км)
Погода в Zahedan (Иран) (196 км)
Погода в Panjgur (Пакистан) (245 км)
Погода в Iranshahr (Иран) (270 км)
Погода в Zabol (Иран) (277 км)
Погода в Lashkargah (Афганистан) (341 км)
Погода в Kalat (Пакистан) (374 км)
Погода в Khuzdar (Пакистан) (396 км)
Погода в Nehbandan (Иран) (399 км)

Пояснения к столбцам:

Ветер - указаны скорость ветра в м/с - средняя за 10 мин, порывы в срок и между сроками (в фигурных скобках) и направление, откуда дует ветер: С - северный, СВ - северо-восточный, В - восточный, ЮВ - юго-восточный, Ю - южный, ЮЗ - юго-западный, З - западный, СЗ - северо-западный.
Видимость - горизонтальная дальность видимости в метрах или километрах. При видимости от 1 до 10 км при отсутствии осадков обычно наблюдается дымка, при ухудшении видимости до 1 км и менее - туман. В сухую погоду видимость может ухудшаться дымом, пылью или мглою.
Явления - указаны атмосферные явления, наблюдавшиеся в срок или в последний час перед сроком; фигурными скобками обозначены явления, наблюдавшиеся между сроками (за 1-3 часа до срока); квадратными скобками обозначены град или гололедные отложения с указанием их диаметра в мм.
Облачность - указаны через наклонную черту общая и нижняя облачность в баллах и высота нижней границы облаков в метрах; квадратными скобками обозначены формы облаков: Ci - перистые, Cs - перисто-слоистые, Cc - перисто-кучевые, Ac - высококучевые, As - высокослоистые, Sc - слоисто-кучевые, Ns - слоисто-дождевые, Cu - кучевые, Cb - кучево-дождевые. Подробнее классификацию облаков см. в Атласе облаков (PDF).
T - Температура воздуха - температура, измеренная на высоте 2 м над землей.
Td - Температура точки росы - температура, при понижении до которой содержащийся в воздухе водяной пар достигнет насыщения.
f - Относительная влажность воздуха - влажноcть воздуха, измеренная на высоте 2 м над землей.
Te - Эффективная температура - температура, которую ощущает одетый по сезону человек в тени. Характеристика душности погоды. При расчете учитывается влияние влажности воздуха и скорости ветра на теплоощущения человека.
Tes - Эффективная температура на солнце - температура, которую ощущает человек, с поправкой на солнечный нагрев. Характеристика знойности погоды. Зависит от высоты солнца над горизонтом, облачности и скорости ветра. Ночью, в пасмурную погоду, а также при ветре 12 м/с и более поправка равна нулю.
P - Атмосферное давление - приведенное к уровню моря атмосферное давление.
Po - Атмосферное давление - измеренное на уровне метеостанции атмосферное давление.
Tmin - Минимальная температура - минимум температуры воздуха на высоте 2 м над землей.
Tmax - Максимальная температура - максимум температуры воздуха на высоте 2 м над землей.
R - Количество осадков - Количество выпавших осадков за период времени, мм. При наведении курсора мыши на число - период времени, за который выпало указанное количество осадков.
R24 - Количество осадков - Количество выпавших осадков за 24 часа, мм.
S - Снежный покров - Высота снежного покрова, см. При наведении курсора мыши на число - состояние снежного покрова и степень покрытия местности в баллах.